SCP
0 0 0 0 0 0 0 0 0 0 0 0 0 0 0 0 0 0 0 0 0 0
0 0 0 0 0 0 0 0 0 0 0 0 0 0 0 0 0 0 0 0 0 0
0 0 0 0 0 0 0 0 0 0 0 0 0 0 0 0 0 0 0 0 0 0
0 0 0 0 0 0 0 0 0 0 0 0 0 0 0 0 0 0 0 0 0 0
0 0 0 0 0 0 0 0 0 0 0 0 0 0 0 0 0 0 0 0 0 0
0 0 0 0 0 0 0 0 0 0 0 0 0 0 0 0 0 0 0 0 0 0
0 0 0 0 0 0 0 0 0 0 0 0 0 0 0 0 0 0 0 0 0 0
0 0 0 0 0 0 0 0 0 0 0 0 0 0 0 0 0 0 0 0 0 0
0 0 0 0 0 0 0 0 0 0 0 0 0 0 0 0 0 0 0 0 0 0
0 0 0 0 0 0 0 0 0 0 0 0 0 0 0 0 0 0 0 0 0 0
0 0 0 0 0 0 0 0 0 0 0 0 0 0 0 0 0 0 0 0 0 0
0 0 0 0 0 0 0 0 0 0 0 0 0 0 0 0 0 0 0 0 0 0
0 0 0 0 0 0 0 0 0 0 0 0 0 0 0 0 0 0 0 0 0 0
0 0 0 0 0 0 0 0 0 0 0 0 0 0 0 0 0 0 0 0 0 0
Wind_Speed_500mb
36 45 51 56 57 57 58 59 59 58 60 63 67 69 79 85 84 97 109 109 127 121
26 32 38 40 44 47 49 51 52 52 55 60 67 72 81 87 93 90 93 99 107 113
17 22 26 31 33 35 37 41 46 51 54 57 62 68 73 80 84 86 91 93 93 97
5 7 8 12 17 23 28 32 39 44 50 54 58 64 70 77 82 86 86 90 93 97
6 4 8 14 20 24 28 33 39 43 48 52 55 59 64 70 76 81 83 85 89 92
10 12 17 24 28 32 36 39 42 47 51 55 57 58 61 65 69 74 78 80 84 85
28 30 33 35 37 40 43 46 49 50 53 55 58 60 62 64 68 72 77 79 81 79
30 35 37 40 43 46 49 51 53 55 57 58 61 63 63 65 68 72 77 79 79 79
29 32 35 37 38 40 42 45 48 51 55 57 58 57 60 64 71 74 79 82 82 81
38 40 44 46 48 51 52 54 57 58 59 61 62 62 62 62 69 76 80 83 83 82
46 48 49 51 54 55 58 60 62 64 67 71 67 66 68 68 72 79 81 82 83 82
52 53 55 57 57 58 62 64 66 68 69 72 74 71 68 67 77 83 85 86 84 80
56 59 62 64 63 62 63 67 65 66 67 73 78 74 74 69 70 79 85 88 89 81
61 64 65 72 72 74 74 74 73 75 72 70 71 75 75 74 74 75 78 84 88 86
Wind_Direction_500mb
243 248 254 259 265 269 270 271 273 276 276 278 275 275 267 276 263 270 257 268 258 262
237 244 252 258 261 261 262 264 266 266 266 268 270 272 267 270 261 278 262 279 264 264
239 244 251 256 259 261 262 264 264 264 261 259 261 263 267 269 271 270 270 271 272 271
182 201 235 262 274 274 267 266 265 266 265 264 263 262 264 267 271 271 269 268 269 269
66 8 322 304 293 288 288 286 283 277 274 272 270 268 268 268 269 270 272 272 271 271
341 322 309 303 297 292 289 287 285 285 284 283 282 280 276 274 273 272 272 272 273 275
339 334 328 322 317 312 308 306 302 298 292 288 284 282 281 280 278 276 275 275 275 275
350 339 331 323 319 316 315 313 310 308 306 303 297 292 287 283 282 280 280 278 275 273
350 344 339 335 332 326 320 315 311 309 305 301 298 295 290 286 283 281 279 277 276 274
344 339 334 330 326 323 321 319 318 317 312 307 303 298 291 285 282 281 280 280 279 275
335 332 330 328 325 323 319 316 314 312 311 309 310 307 300 291 282 280 280 280 279 278
328 325 323 320 318 317 314 313 313 313 311 310 309 307 304 300 293 286 282 282 280 278
318 315 314 313 313 312 310 309 309 309 311 310 308 308 305 300 294 291 290 287 283 280
311 308 305 304 304 304 304 304 305 306 306 307 310 308 305 303 297 290 288 286 286 285
Wind_Speed_850mb
36 45 51 56 57 57 58 59 59 58 60 63 67 69 79 85 84 97 109 109 127 121
26 32 38 40 44 47 49 51 52 52 55 60 67 72 81 87 93 90 93 99 107 113
17 22 26 31 33 35 37 41 46 51 54 57 62 68 73 80 84 86 91 93 93 97
5 7 8 12 17 23 28 32 39 44 50 54 58 64 70 77 82 86 86 90 93 97
6 4 8 14 20 24 28 33 39 43 48 52 55 59 64 70 76 81 83 85 89 92
10 12 17 24 28 32 36 39 42 47 51 55 57 58 61 65 69 74 78 80 84 85
28 30 33 35 37 40 43 46 49 50 53 55 58 60 62 64 68 72 77 79 81 79
30 35 37 40 43 46 49 51 53 55 57 58 61 63 63 65 68 72 77 79 79 79
29 32 35 37 38 40 42 45 48 51 55 57 58 57 60 64 71 74 79 82 82 81
38 40 44 46 48 51 52 54 57 58 59 61 62 62 62 62 69 76 80 83 83 82
46 48 49 51 54 55 58 60 62 64 67 71 67 66 68 68 72 79 81 82 83 82
52 53 55 57 57 58 62 64 66 68 69 72 74 71 68 67 77 83 85 86 84 80
56 59 62 64 63 62 63 67 65 66 67 73 78 74 74 69 70 79 85 88 89 81
61 64 65 72 72 74 74 74 73 75 72 70 71 75 75 74 74 75 78 84 88 86
Wind_Direction_850mb
243 248 254 259 265 269 270 271 273 276 276 278 275 275 267 276 263 270 257 268 258 262
237 244 252 258 261 261 262 264 266 266 266 268 270 272 267 270 261 278 262 279 264 264
239 244 251 256 259 261 262 264 264 264 261 259 261 263 267 269 271 270 270 271 272 271
182 201 235 262 274 274 267 266 265 266 265 264 263 262 264 267 271 271 269 268 269 269
66 8 322 304 293 288 288 286 283 277 274 272 270 268 268 268 269 270 272 272 271 271
341 322 309 303 297 292 289 287 285 285 284 283 282 280 276 274 273 272 272 272 273 275
339 334 328 322 317 312 308 306 302 298 292 288 284 282 281 280 278 276 275 275 275 275
350 339 331 323 319 316 315 313 310 308 306 303 297 292 287 283 282 280 280 278 275 273
350 344 339 335 332 326 320 315 311 309 305 301 298 295 290 286 283 281 279 277 276 274
344 339 334 330 326 323 321 319 318 317 312 307 303 298 291 285 282 281 280 280 279 275
335 332 330 328 325 323 319 316 314 312 311 309 310 307 300 291 282 280 280 280 279 278
328 325 323 320 318 317 314 313 313 313 311 310 309 307 304 300 293 286 282 282 280 278
318 315 314 313 313 312 310 309 309 309 311 310 308 308 305 300 294 291 290 287 283 280
311 308 305 304 304 304 304 304 305 306 306 307 310 308 305 303 297 290 288 286 286 285